NOAA NWS Hourly Roundups by Site

Regional Weather Roundup for Topeka, KS

To Select Another Site Choose from List

Select Site:  

000
ASUS43 KTOP 261308
RWRKS

WEATHER ROUNDUP FOR KANSAS
NATIONAL WEATHER SERVICE GOODLAND KS
800 AM CDT TUE MAR 26 2019

NOTE:  "FAIR" INDICATES FEW OR NO CLOUDS BELOW 12,000 FEET WITH NO
SIGNIFICANT WEATHER AND/OR OBSTRUCTIONS TO VISIBILITY.

KSZ001>006-013>018-027>032-041>047-261400-
NORTHWEST KANSAS

CITY           SKY/WX    TMP DP  RH WIND       PRES   REMARKS
GOODLAND       PTCLDY    36  35  96 SW6       30.25S
HAYS           CLEAR     36  35  96 S3        30.32S FOG
HILL CITY      CLEAR     32  31  96 W3        30.29S FOG
RUSSELL        CLEAR     36  36 100 SW9       30.31S FOG
$$

KSZ061>065-074>080-084>089-261400-
SOUTHWEST KANSAS

CITY           SKY/WX    TMP DP  RH WIND       PRES   REMARKS
DODGE CITY     CLEAR     38  35  89 S9        30.31S FOG
ELKHART        MOCLDY    46  46  98 S10       30.32S FOG
GARDEN CITY    CLEAR     37  37 100 S7        30.30S
GREAT BEND     CLEAR     35  35 100 SW7       30.34S FOG
LIBERAL        CLOUDY    44  42  93 SW8       30.32S
PRATT          CLEAR     37  35  95 W3        30.35R FOG
$$

KSZ066>073-081>083-090>101-261400-
SOUTHEAST KANSAS

CITY           SKY/WX    TMP DP  RH WIND       PRES   REMARKS
CHANUTE        FOG       35  34  96 N5        30.38R VSB<1/4
COFFEYVILLE    FOG       36  36 100 NW3       30.37R VSB 1/4
HUTCHINSON     CLEAR     33  32  96 CALM      30.35R
MEDICINE LODGE   N/A     35  35 100 CALM      30.36R
NEWTON         CLEAR     39  38  96 S6        30.37R FOG
PARSONS        FOG       33  33 100 CALM      30.38R VSB<1/4
WICHITA INTL   PTCLDY    36  33  89 SE3       30.36R FOG
WICHITA JABRA  FOG       34  34 100 S5        30.36R VSB 1/4
WICHITA MCCONL CLEAR     40  40  99 CALM      30.36R FOG
WINFIELD       FOG       35  35 100 CALM      30.38R VSB 1/4
$$

KSZ007>012-019>026-033>040-048>060-102>105-261400-
NORTHEAST KANSAS

CITY           SKY/WX    TMP DP  RH WIND       PRES   REMARKS
CONCORDIA      CLOUDY    44  40  85 S7        30.33R
EMPORIA        FOG       33  33 100 CALM      30.37R VSB 1/4
LAWRENCE       PTCLDY    32  30  92 N3        30.39R FOG
MANHATTAN      PTCLDY    41  37  86 CALM      30.36R
MARYSVILLE     CLOUDY    41  37  87 SE3       30.36R
OLATHE IND     CLEAR     35  35 100 CALM      30.39R FOG
OLATHE EXE     PTCLDY    38  37  97 CALM      30.38R FOG
SALINA         MOCLDY    38  36  92 S5        30.35R FOG
TOPEKA BILLARD FOG       33  32  96 CALM      30.39R VSB 1/4
TOPEKA FORBES  FOG       31  30  96 CALM      30.38R VSB<1/4
$$



 

View Past Reports for Topeka, KS.

Products Courtesy of NOAA-NWS
NWS Information Parsing Script by Ken True at Saratoga Weather - Script by SE Lincoln Weather.